ATLAS 5 CENTAUR R/B, 40978

Orbit data source: Space-Track

ATLAS 5 CENTAUR R/B, 40978 is space debris in LEO originally from an American launch on Thu, 08 Oct 2015 UTC via an ATLAS V 401 launch vehicle from the Air Force Western Test Range (AFWTR). Debris objects in space refer to the collection of defunct objects orbiting the Earth. Examples of debris include non-operational satellites, rocket bodies, and fragments generated from explosions, collisions, or faulty payload assembly.

Loading next visibility...
Identifier
40978, 2015-058Q
Orbit
LEO
Country
Flag of USUS
Related business
Manufacturer
USN PGS
Mission
Spacecraft
Bus & Motor
NPSCUL, Unknown motor
Mass
~2,065 kg wet, ~45 kg dry
Launch date (UTC)
2015-10-08 (10 years ago)
Launch vehicle
ATLAS V 401
Launch site
Air Force Western Test Range (AFWTR)
Object type
Payload
Rocket body
Debris
Shape & HBR
Unknown
Radar Cross Section
Large (>1 m²)

Expand to show TLE details & history
Last TLE update: 17 hours ago

TLE from 17 hours ago
0 ATLAS 5 CENTAUR R/B
1 40978U 15058Q   25302.29152791  .00008509  00000-0  56109-3 0  9991
2 40978  64.7673 152.1174 0122154 147.4889 213.3830 15.02077502 80502
Epoch: 2025-10-29T06:59Z
TLE epoch observation values (Epoch: 2025-10-29T06:59:48.011Z)
Latitude
0.00002°
Longitude
9.3006°
Altitude
633.599 km
Speed
7.503 km/s
True Right ascension
10h 08m 28s
True Declination
0° 00' 00"
Sunlit
Object was in daylight at epoch
Visualization orbit readout
Latitude
Unknown
Longitude
Unknown
Altitude
Unknown
Speed
Unknown
Apparent Right ascension
Unknown
Apparent Declination
Unknown
Sunlit
N/A
Visualization observer readout
Local Sidereal Time
19:49:15
Azimuth
Unknown
Elevation
Unknown
Doppler factor
Unknown
Orbital elements
Apogee altitude
643.792 km
Perigee altitude
474.311 km
Semi-major axis
6,937.189 km
Eccentricity
0.01222
Inclination
64.7673°
RAAN
152.1174°
Arg. of periapsis
147.4889°
True anomaly
212.62252°
Mean anomaly
213.383°
Eccentric anomaly
213.00179°
Mean motion
3.75637 °/min
Orbital period
95.84 mins
BSTAR
0.00056109
Loading maneuver chart data...
Computing Atmospheric mass density...
Loading historical data...
Loading historical data...
Loading historical data...
Loading historical data...
Loading historical data...
Loading historical data...
Loading historical data...

Documentation

Showing up to 5 results
|